Regional Weather Roundup
Issued by NWS

Home | Current Version | Previous Version | Text Only | Print | Product List | Glossary On
Versions: 1 2 3 4 5 6 7 8 9 10 11 12 13 14 15 16 17 18 19 20 21 22 23 24 25 26 27 28 29 30 31 32 33 34 35 36 37 38 39 40 41 42 43 44 45 46 47 48 49 50
000
ASUS42 KFFC 011103
RWRGA
WEATHER ROUNDUP FOR GEORGIA
NATIONAL WEATHER SERVICE PEACHTREE CITY GA
700 AM EDT FRI AUG 01 2014

NOTE: "FAIR" INDICATES FEW OR NO CLOUDS BELOW 12,000 FEET WITH NO
SIGNIFICANT WEATHER AND/OR OBSTRUCTIONS TO VISIBILITY.

* = USE WITH CAUTION. THE STATIONS MARKED WITH AN ASTERISK MAY NOT
REPORT WEATHER SUCH AS PRECIPITATION, FOG, OR THUNDER AND ARE NOT
QUALITY CONTROLLED BY NWS.

THE REMARK "TC" DENOTES TEMPERATURE READING IN DEGREES CELSIUS.

GAZ001>058-011200-
NORTH GEORGIA

CITY           SKY/WX    TMP DP  RH WIND       PRES   REMARKS
ATLANTA        CLOUDY    68  65  90 NE13      30.07R
ATHENS         LGT RAIN  67  65  93 NE6       30.08R
CHAMBLEE       CLOUDY    66  63  90 VRB5      30.07R
PEACHTREE CITY CLOUDY    68  67  96 E5        30.06R
ROME           CLOUDY    68  65  90 CALM      30.07R
WEST ATLANTA   CLOUDY    68  65  90 NE9       30.07R
GAINESVILLE    CLOUDY    65  64  97 E7        30.11R
CARTERSVILLE   CLOUDY    68  65  90 CALM      30.08R


CITY           SKY/WX    TMP DP  RH WIND       PRES   REMARKS
DALTON*        MOCLDY    64  64 100 CALM      30.08R
LAWRENCEVILLE* CLOUDY    64  57  77 E6        30.08  FOG
MARIETTA       CLOUDY    66  65  97 E5        30.08R FOG
KENNESAW*      CLOUDY    66  64  94 SE6       30.09
$$

GAZ059>098-102>109-011200-
CENTRAL GEORGIA

CITY           SKY/WX    TMP DP  RH WIND       PRES   REMARKS
AUGUSTA-BUSH   CLOUDY    70  69  97 N9        30.03R FOG
AUGUSTA-DANIEL CLOUDY    70  68  93 N8        30.05R FOG
COLUMBUS       CLOUDY    72  67  84 NE6       30.01R
MACON          CLOUDY    71  70  96 NE8       30.02R
ROBINS AFB     CLOUDY    72  69  91 N5        30.01R


CITY           SKY/WX    TMP DP  RH WIND       PRES   REMARKS
LAGRANGE*      CLOUDY    72  70  93 NE3       30.04S
SYLVANIA*      CLOUDY    74  74 100 NE3       30.02R FOG
MILLEDGEVILLE* CLOUDY    59  59 100 CALM      30.04R
$$

GAZ099>101-110>166-011200-
SOUTH GEORGIA

CITY           SKY/WX    TMP DP  RH WIND       PRES   REMARKS
SAVANNAH       FOG       74  73  97 N3        29.99R VSB 1/2
VALDOSTA       CLOUDY    71  65  81 CALM      29.96S
ALMA           CLEAR     73  71  93 CALM      29.98R FOG
ST SIMONS      LGT RAIN  81  76  84 CALM      29.96R
FT STEWART     FOG       74  73  97 N5        29.97S VSB 1/2
ALBANY         CLOUDY    74  72  93 NE6       30.00R
HUNTER AFB     FOG       74  74 100 N3        29.97R VSB 1/2
MOODY AFB      CLOUDY    72  69  92 CALM      29.96S
BRUNSWICK      MOCLDY    77  73  88 CALM      29.97R


CITY           SKY/WX    TMP DP  RH WIND       PRES   REMARKS
BAINBRIDGE*    MOCLDY    73  70  88 CALM      29.98R
MOULTRIE*      MOCLDY    72  72 100 CALM      29.98S
VIDALIA*       FOG       73  73 100 NE5       30.00S VSB 1/4
WAYCROSS*      MOCLDY    75  74  95 CALM      29.98R
DOUGLAS*       MOCLDY    75  72  88 NE6       29.99S
$$


USA.gov is the U.S. government's official web portal to all federal, state and local government web resources and services.